Flag for Colombia Weather past 2 weeks in Bucaramanga, Colombia

Now
68 °F

Passing clouds.


Feels Like: 68 °F
Forecast: 63 / 83 °F
Wind: No wind

Location: Bucaramanga / Palonegro

Current Time: Dec 22, 2014 at 2:29:26 AM

Latest Report: Dec 21, 2014 at 11:00 PM


Visibility: N/A

Pressure: 30.02 "Hg

Humidity: 94%

Dew point: 66 °F

Location of BucaramangaLocation

Historic Weather in Bucaramanga — Graph

°F

Bucaramanga temperature yesterday

Maximum temperature yesterday: 75 °F (at 11:00 AM)
Minimum temperature yesterday: 66 °F (at 6:00 AM)
Average temperature yesterday: 72 °F

Past Weeks' High & Low Weather Summary

 TemperatureHumidityPressure
High79 °F (Dec 18, 11:00 AM)100% (Dec 6, 11:00 PM)30.09 "Hg (Dec 6, 11:00 PM)
Low64 °F (Dec 9, 10:00 PM)61% (Dec 18, 11:00 AM)29.88 "Hg (Dec 8, 5:00 PM)
Average71 °F87%29.99 "Hg
* Reported Dec 6 11:00 PM — Dec 21 11:00 PM, Bucaramanga, Weather by CustomWeather, © 2014

Note: Actual official high and low records may vary slightly from our data, if they occured in-between our weather recording intervals... More about our weather records

Advertising

Bucaramanga weather history for previous 24 hours

 ConditionsComfort  
Time TempWeatherWind HumidityBarometerVisibility
11:00 PM
Dec 21
68 °FPassing clouds.No wind94%30.02 "HgN/A
10:00 PM68 °FPassing clouds.No wind94%30.01 "HgN/A
9:00 PM68 °FPassing clouds.No wind94%29.98 "HgN/A
8:00 PM70 °FPassing clouds.No wind94%29.97 "HgN/A
7:00 PM70 °FFog.7 mph94%29.96 "Hg5 mi
6:00 PM72 °FPassing clouds.7 mph88%29.94 "HgN/A
5:00 PM73 °FScattered clouds.5 mph83%29.92 "HgN/A
4:00 PM75 °FScattered clouds.3 mph78%29.92 "HgN/A
3:00 PM75 °FScattered clouds.3 mph78%29.94 "HgN/A
2:00 PM75 °FScattered clouds.5 mph74%29.97 "HgN/A
1:00 PM75 °FScattered clouds.5 mph74%29.98 "HgN/A
12:00 PM75 °FScattered clouds.3 mph74%30.00 "HgN/A
11:00 AM75 °FBroken clouds.8 mph74%30.02 "Hg5 mi
10:00 AM73 °FScattered clouds.3 mph78%30.04 "Hg5 mi
9:00 AM73 °FScattered clouds.2 mph83%30.03 "Hg5 mi
8:00 AM70 °FScattered clouds.No wind88%30.01 "Hg3 mi
7:00 AM66 °FScattered clouds.2 mph100%30.00 "Hg3 mi
6:00 AM66 °FBroken clouds.No wind100%29.98 "Hg1 mi
Weather by CustomWeather, © 2014

See weather overviewHow to use our weather pages